テンペル-スイフト-リニア彗星

11P/Tempel-Swift-LINEAR (2008)

English version
Home page
Updated on August 8, 2007

---------------------------------------------------------------------

・ プロフィール

・ 軌道要素

Perturbed ephemeris below is based on elements from MPC 44184. 

 Epoch = 2454600.50000 TT   T = 2454591.07095 TT
 Peri. =  163.89902         a =     3.4140601 AU
 Node  =  240.52623 J2000.0 e =     0.5449504
 Incl. =   13.55316         q =     1.5535665 AU

・ 光度変化

        m1 = 15.0 + 5 logΔ + 10.0 log r

---------------------------------------------------------------------

軌道要素はMinor Planet & Comet Ephemeris Serviceで計算したものです。
光度グラフはComet for Windowsで作成したものです。

---------------------------------------------------------------------

Copyright(C) Seiichi Yoshida (comet@aerith.net). All rights reserved.